Regional Weather Roundup
Issued by NWS Cleveland, OH

Home | Current Version | Previous Version | Text Only | Print | Product List | Glossary Off
Versions: 1 2 3 4 5 6 7 8 9 10 11 12 13 14 15 16 17 18 19 20 21 22 23 24 25 26 27 28 29 30 31 32 33 34 35 36 37 38 39 40 41 42 43 44 45 46 47 48 49 50

000
ASUS41 KCLE 270310
RWRCLE
OHIO REGIONAL WEATHER ROUNDUP
NATIONAL WEATHER SERVICE CLEVELAND, OH
1100 PM EDT TUE AUG 26 2014

NOTE: "FAIR" INDICATES FEW OR NO CLOUDS BELOW 12,000 FEET WITH NO
SIGNIFICANT WEATHER AND/OR OBSTRUCTIONS TO VISIBILITY.

OHZ001>008-015>018-024>027-034-035-043-044-270400-
   NORTHWEST OHIO

CITY           SKY/WX    TMP DP  RH WIND       PRES   REMARKS
DEFIANCE       CLEAR     73  70  90 CALM      30.09R
FINDLAY        CLEAR     72  69  90 CALM      30.07S
TOLEDO EXPRESS CLEAR     75  70  84 W5        30.06S
TOLEDO EXEC    CLEAR     74  68  81 S5        30.07S
LIMA           PTCLDY    73  69  87 SW5       30.10R
$$

OHZ009>014-019>023-028>033-038-089-270400-
   NORTHEAST OHIO

CITY           SKY/WX    TMP DP  RH WIND       PRES   REMARKS
CLE-HOPKINS    MOCLDY    71  69  93 SW7       30.06F
CLE-LAKEFRONT  CLOUDY    73  68  84 SE5       30.02S
CUY CO. ARPT   MOCLDY    73  68  83 S12       30.05R
LORAIN-ELYRIA  HAZE      75  68  78 SW8       30.06F VSB 3/4
ASHTABULA      CLOUDY    71  70  96 CALM      30.06R FOG
AKRON-CANTON   MOCLDY    74  66  76 SW5       30.07F
WOOSTER        MOCLDY    70  66  87 CALM      30.09R
MANSFIELD      MOCLDY    70  69  97 S5        30.09F
YOUNGSTOWN     MOCLDY    74  67  78 W6        30.08R
$$

OHZ042-051>053-060>062-070>072-077>081-270400-
  SOUTHWEST OHIO

CITY           SKY/WX    TMP DP  RH WIND       PRES   REMARKS
CINC-COVINGTON PTCLDY    77  69  76 SW3       30.10R
CINC-LUNKEN    PTCLDY    73  72  96 CALM      30.09R FOG
HAMILTON       PTCLDY    73  70  90 CALM      30.10R
DAYTON         MOCLDY    74  68  81 CALM      30.11R
WRIGHT-PAT AFB PTCLDY    73  70  89 NE2       30.10R
DAYTON GENERAL PTCLDY    74  72  93 CALM      30.10R
WILMINGTON     PTCLDY    71  68  90 S3        30.10R
$$

OHZ036-037-039>041-045>050-054>059-063>069-073>076-082>088-270400-
  CENTRAL AND SOUTHEAST OHIO

CITY           SKY/WX    TMP DP  RH WIND       PRES   REMARKS
COLUMBUS       MOCLDY    80  67  64 S5        30.08R
OSU AIRPORT    PTCLDY    79  69  71 S7        30.08S
BOLTON FIELD   PTCLDY    74  69  83 S8        30.09S
RICKENBACK AFB PTCLDY    75  64  70 S6        30.07S
NEWARK         MOCLDY    75  67  76 S3        30.08S
MARION         PTCLDY    72  66  81 S5        30.09S
LANCASTER      PTCLDY    72  67  84 S3        30.09S
ZANESVILLE     MOCLDY    72  67  84 CALM      30.08F
NEW PHILLY     MOCLDY    71  69  93 S3        30.07F
$$



USA.gov is the U.S. government's official web portal to all federal, state and local government web resources and services.